Location: Albany
(35.0000°S, 118.0000°E)
Time: 02:28:52
(UTC-05:00)

CZ-4B R/B - Visible Passes

Search period start: 25 November 2017 00:00
Search period end: 05 December 2017 00:00
Orbit: 488 x 655 km, 97.8° (Epoch: 24 November)

Date Brightness Start Highest point End Pass type
(mag) Time Alt. Az. Time Alt. Az. Time Alt. Az.
25 Nov 6.1 13:02:28 10° E 13:04:08 12° ESE 13:05:49 10° SE visible
25 Nov 3.2 14:34:16 10° N 14:38:45 59° W 14:43:12 10° SSW visible
26 Nov 6.1 13:04:32 10° E 13:06:28 13° ESE 13:08:23 10° SE visible
26 Nov 3.3 14:36:39 10° N 14:41:06 55° W 14:45:31 10° SSW visible
27 Nov 6.1 13:06:39 10° E 13:08:46 13° ESE 13:10:53 10° SE visible
27 Nov 3.3 14:39:02 10° N 14:43:27 52° W 14:47:48 10° SSW visible
28 Nov 6.0 13:08:47 10° E 13:11:05 14° ESE 13:13:23 10° SE visible
28 Nov 3.4 14:41:26 10° N 14:45:47 48° W 14:50:06 10° SSW visible
29 Nov 6.0 13:10:55 10° E 13:13:24 15° ESE 13:15:50 10° SE visible
29 Nov 3.4 14:43:49 10° N 14:48:08 45° W 14:52:23 10° SSW visible
30 Nov 5.9 13:13:05 10° ENE 13:15:42 16° ESE 13:18:18 10° SSE visible
30 Nov 3.5 14:46:12 10° N 14:50:28 42° W 14:54:40 10° SSW visible
01 Dec 5.9 13:15:16 10° ENE 13:18:01 16° ESE 13:20:43 10° SSE visible
01 Dec 3.6 14:48:36 10° NNW 14:52:48 39° W 14:56:55 10° SSW visible
02 Dec 5.8 13:17:27 10° ENE 13:20:20 17° ESE 13:23:08 10° SSE visible
02 Dec 3.7 14:51:01 10° NNW 14:55:09 37° W 14:59:12 10° SSW visible
03 Dec 5.7 13:19:39 10° ENE 13:22:38 18° ESE 13:25:33 10° SSE visible
03 Dec 3.8 14:53:25 10° NNW 14:57:29 35° W 15:01:27 10° SSW visible
04 Dec 5.7 13:21:51 10° ENE 13:24:56 19° ESE 13:27:56 10° SSE visible
04 Dec 3.8 14:55:50 10° NNW 14:59:48 32° W 15:03:42 10° SSW visible
